User: anonymous   Login
Location: Unspecified
(0.0000°N, 0.0000°E)
Time: 07:04:34
(UTC+01:00)
Language:

Ariane 42L R/B - Orbit

View from above orbital plane
View from above orbital plane
View from above satellite
View from above satellite

Ground track
Ground track

The orbit data is extracted from the following two-line orbital elements,

1 26299U 00020B   18017.53224218  .00002279  00000-0  60860-3 0  9997
2 26299   7.5008 120.8703 5936417 232.0322  57.8932  4.12290945227933
Epoch (UTC): 17 January 2018 12:46:25
Eccentricity: 0.5936417
inclination: 7.5008°
perigee height: 298 km
apogee height: 19803 km
right ascension of ascending node: 120.8703°
argument of perigee: 232.0322°
revolutions per day: 4.12290945
mean anomaly at epoch: 57.8932°
orbit number at epoch: 22793

The dashed part of the orbit path shows where the satellite is in the earth's shadow,  

DLR